Showing default

HULIANWANG DIGUI-01, 62323

Orbit data source: Space-Track

HULIANWANG DIGUI-01, 62323 is a payload satellite owned by Zhongguo Xingwang (CN) in LEO that was launched on Mon, 16 Dec 2024 UTC via a CHANG ZHENG 5B/YZ-2 launch vehicle from the Wenchang Satellite Launch Center (WSC). Payload-class satellites include a variety of spacecraft equipped with specific instruments for various scientific and technological missions. These include communications satellites like Starlink; space stations such as the ISS; scientific satellites like the Hubble; Earth observation satellites from companies like Planet Labs, Umbra, and HawkEye 360; GPS; miniature CubeSats for education and research; and military/defense satellites.

Loading next visibility...
Identifier
62323, 2024-240A
Orbit
LEO
Country
Flag of CNCN / PRC
Related business
Manufacturer
CAST?
Mission
Operational Civil Communications
Bus & Motor
XINGWANG CL, Unknown motor
Mass
~800 kg wet, ~800 kg dry
Launch date (UTC)
2024-12-16 (1 year ago)
Launch vehicle
CHANG ZHENG 5B/YZ-2
Launch site
Wenchang Satellite Launch Center (WSC)
Object type
Payload
Rocket body
Debris
Shape & HBR
Box + 2 Pan, 5.0 m
Radar Cross Section
5.935 m², Large (>1 m²)

Expand to show TLE details & history
Last TLE update: 6 hours ago

TLE from 6 hours ago
0 HULIANWANG DIGUI-01
1 62323U 24240A   26061.85309657  .00000018  00000-0  89305-5 0  9995
2 62323  86.5025  19.0862 0001926  86.6390 273.4964 13.24420333 58564
Epoch: 2026-03-02T20:28Z
TLE epoch observation values (Epoch: 2026-03-02T20:28:27.543Z)
Latitude
-0.00007°
Longitude
-88.66912°
Altitude
1,170.689 km
Speed
7.268 km/s
True Right ascension
01h 16m 20s
True Declination
0° 00' 00"
Sunlit
Object was in daylight at epoch
Visualization orbit readout
Latitude
Unknown
Longitude
Unknown
Altitude
Unknown
Speed
Unknown
Apparent Right ascension
Unknown
Apparent Declination
Unknown
Sunlit
N/A
Visualization observer readout
Local Sidereal Time
06:31:07
Azimuth
Unknown
Elevation
Unknown
Doppler factor
Unknown
Orbital elements
Apogee altitude
1,166.456 km
Perigee altitude
1,163.55 km
Semi-major axis
7,543.14 km
Eccentricity
0.00019
Inclination
86.5025°
RAAN
19.0862°
Arg. of periapsis
86.639°
True anomaly
273.47437°
Mean anomaly
273.4964°
Eccentric anomaly
273.48539°
Mean motion
3.31295 °/min
Orbital period
108.66 mins
BSTAR
0.0000089305
Loading maneuver chart data...
Computing Atmospheric mass density...
Loading historical data...
Loading historical data...
Loading historical data...
Loading historical data...
Loading historical data...
Loading historical data...
Loading historical data...

Documentation

Showing up to 5 results
|